Flag for South Korea Weather past 2 weeks in Seoul, South Korea

Now
84 °F

Broken clouds.


Feels Like: 90 °F
Forecast: 76 / 87 °F
Wind: 16 mph from Southwest

Location: Seoul / Kimp'O International Airport

Current Time: Aug 3, 2015 at 8:10:33 PM

Latest Report: Aug 3, 2015 at 7:00 PM


Visibility: N/A

Pressure: 29.74 "Hg

Humidity: 66%

Dew point: 72 °F

Location of SeoulLocation

Historic Weather in Seoul — Graph

°F

Seoul temperature yesterday

Maximum temperature yesterday: 86 °F (at 2:00 PM)
Minimum temperature yesterday: 75 °F (at 1:54 AM)
Average temperature yesterday: 80 °F

Past Weeks' High & Low Weather Summary

 TemperatureHumidityPressure
High91 °F (Jul 30, 12:00 PM)94% (Jul 24, 12:00 AM)29.83 "Hg (Jul 24, 12:00 AM)
Low73 °F (Jul 20, 12:00 AM)51% (Jul 19, 6:00 PM)29.62 "Hg (Jul 24, 4:00 AM)
Average80 °F79%29.74 "Hg
* Reported Jul 19 6:00 PM — Aug 3 6:00 PM, Seoul, Weather by CustomWeather, © 2015

Note: Actual official high and low records may vary slightly from our data, if they occured in-between our weather recording intervals... More about our weather records

Advertising

Seoul weather history for previous 24 hours

 ConditionsComfort  
Time TempWeatherWind HumidityBarometerVisibility
6:00 PM
Mon, Aug 3
84 °FBroken clouds.16 mph66%29.74 "HgN/A
5:00 PM84 °FBroken clouds.16 mph70%29.74 "HgN/A
4:00 PM86 °FBroken clouds.20 mph66%29.74 "HgN/A
3:00 PM88 °FBroken clouds.18 mph62%29.74 "HgN/A
2:00 PM88 °FBroken clouds.15 mph62%29.74 "HgN/A
1:00 PM88 °FBroken clouds.20 mph62%29.74 "HgN/A
12:00 PM86 °FBroken clouds.20 mph66%29.77 "Hg5 mi
11:00 AM84 °FCloudy.18 mph70%29.77 "Hg5 mi
10:00 AM82 °FCloudy.13 mph70%29.77 "HgN/A
9:00 AM81 °FPartly sunny.13 mph74%29.80 "HgN/A
8:00 AM81 °FPartly sunny.13 mph74%29.80 "HgN/A
7:00 AM79 °FScattered clouds.13 mph79%29.80 "Hg6 mi
6:00 AM79 °FScattered clouds.10 mph79%29.80 "Hg4 mi
5:00 AM79 °FPassing clouds.12 mph79%29.80 "Hg4 mi
4:00 AM79 °FPassing clouds.13 mph79%29.80 "Hg4 mi
3:00 AM79 °FPassing clouds.10 mph84%29.80 "Hg4 mi
2:00 AM79 °FPassing clouds.9 mph84%29.80 "Hg4 mi
1:00 AM81 °FPassing clouds.12 mph79%29.80 "Hg4 mi
12:00 AM79 °FPassing clouds.8 mph84%29.80 "Hg4 mi
11:00 PM
Sun, Aug 2
79 °FPassing clouds.9 mph84%29.80 "Hg4 mi
10:00 PM81 °FPassing clouds.9 mph84%29.80 "Hg4 mi
9:00 PM81 °FPassing clouds.10 mph79%29.80 "Hg4 mi
8:00 PM81 °FPartly cloudy.3 mph84%29.80 "Hg4 mi
Weather by CustomWeather, © 2015

See weather overviewHow to use our weather pages